Showing default

TOPEX/POSEIDON, 22076

Orbit data source: Space-Track

TOPEX/POSEIDON, 22076 is an American payload satellite in LEO that was launched on Mon, 10 Aug 1992 UTC via an ARIANE 42P launch vehicle from the French Guiana (FRGUI). Payload-class satellites include a variety of spacecraft equipped with specific instruments for various scientific and technological missions. These include communications satellites like Starlink; space stations such as the ISS; scientific satellites like the Hubble; Earth observation satellites from companies like Planet Labs, Umbra, and HawkEye 360; GPS; miniature CubeSats for education and research; and military/defense satellites.

Loading next visibility...
Identifier
22076, 1992-052A
Orbit
LEO
Country
Flag of USUS
Related business
Manufacturer
Fairchild
Mission
Non-operational Civil Science
Bus & Motor
MMS, Unknown motor
Mass
2,402 kg wet, 2,185 kg dry
Launch date (UTC)
1992-08-10 (33 years ago)
Launch vehicle
ARIANE 42P
Launch site
French Guiana (FRGUI)
Object type
Payload
Rocket body
Debris
Shape & HBR
Hex Poly + 1 Pan, 6.8 m
Radar Cross Section
20.954 m², Large (>1 m²)

Expand to show TLE details & history
Last TLE update: 22 hours ago

TLE from 22 hours ago
0 TOPEX/POSEIDON
1 22076U 92052A   25305.62422672 -.00000058  00000-0  15057-4 0  9997
2 22076  66.0404 244.9618 0007845 271.4246 262.1687 12.81086677554331
Epoch: 2025-11-01T14:58Z
TLE epoch observation values (Epoch: 2025-11-01T14:58:53.188Z)
Latitude
5.87449°
Longitude
156.48098°
Altitude
1,339.275 km
Speed
7.189 km/s
True Right ascension
04h 09m 25s
True Declination
5° 50' 32"
Sunlit
Object was in full shadow at epoch
Visualization orbit readout
Latitude
Unknown
Longitude
Unknown
Altitude
Unknown
Speed
Unknown
Apparent Right ascension
Unknown
Apparent Declination
Unknown
Sunlit
N/A
Visualization observer readout
Local Sidereal Time
08:34:56
Azimuth
Unknown
Elevation
Unknown
Doppler factor
Unknown
Orbital elements
Apogee altitude
1,341.718 km
Perigee altitude
1,329.615 km
Semi-major axis
7,713.804 km
Eccentricity
0.00078
Inclination
66.0404°
RAAN
244.9618°
Arg. of periapsis
271.4246°
True anomaly
262.07965°
Mean anomaly
262.1687°
Eccentric anomaly
262.12418°
Mean motion
3.20361 °/min
Orbital period
112.37 mins
BSTAR
0.000015057
Loading maneuver chart data...
Computing Atmospheric mass density...
Loading historical data...
Loading historical data...
Loading historical data...
Loading historical data...
Loading historical data...
Loading historical data...
Loading historical data...

Documentation

Showing up to 5 results
|